EW7678 Weather Reports


Display with metric or nautical units.
time (UTC)temp
F
wind
direction
speed
MPH
gust
MPH
rain 1hr
in
rain 24hr
in
rain mn
in
humidity
%
barometer
mb
20260903011546 58 105 0.0 2.0 0.00 0.00 0.00 92 1003.7
20260903010044 58 255 0.0 1.0 0.00 0.00 0.00 91 1003.9
20260903004542 59 123 0.0 1.0 0.00 0.00 0.00 89 1003.5
20260903003042 61 122 0.0 4.0 0.00 0.00 0.00 84 1003.6
20260903001542 67 108 0.0 3.0 0.00 0.00 0.00 80 1003.3
20260903000041 70 130 0.0 0.0 0.00 0.00 0.00 74 1002.1
20260902234543 72 130 0.0 0.0 0.00 0.00 0.00 67 1001.8
20260902233040 73 130 0.0 2.0 0.00 0.00 0.00 64 1001.9
20260902231538 72 214 0.0 0.0 0.00 0.00 0.00 67 1002.1
20260902230036 72 212 0.0 1.0 0.00 0.00 0.00 65 1002.3
20260902224549 73 211 0.0 1.0 0.00 0.00 0.00 61 1002.5
20260902223034 74 127 0.0 1.0 0.00 0.00 0.00 64 1002.6
20260902221533 74 148 0.0 2.0 0.00 0.00 0.00 62 1002.7
20260902220029 75 127 0.0 2.0 0.00 0.00 0.00 61 1003.0
20260902214526 72 297 0.0 2.0 0.00 0.00 0.00 62 1003.4
20260902213021 71 293 0.0 1.0 0.00 0.00 0.00 72 1003.7
20260902211520 70 294 0.0 2.0 0.00 0.00 0.00 71 1003.9
20260902210020 70 301 0.0 1.0 0.00 0.00 0.00 72 1004.1
20260902204521 70 153 0.0 1.0 0.00 0.00 0.00 73 1004.2
20260902203017 69 108 0.0 1.0 0.00 0.00 0.00 75 1004.3
20260902201517 67 290 0.0 2.0 0.00 0.00 0.00 73 1004.5
20260902200019 66 133 0.0 1.0 0.00 0.00 0.00 78 1004.7
20260902194520 64 1 0.0 1.0 0.00 0.00 0.00 86 1004.8
20260902193012 65 1 0.0 0.0 0.00 0.00 0.00 87 1005.0
20260902191513 64 3 0.0 0.0 0.00 0.00 0.00 86 1005.0
20260902190019 63 3 0.0 0.0 0.00 0.00 0.00 88 1005.0
20260902184511 63 3 0.0 1.0 0.00 0.00 0.00 89 1005.1
20260902183012 63 120 0.0 0.0 0.00 0.00 0.00 92 1005.1
20260902181510 62 120 0.0 1.0 0.00 0.00 0.00 92 1005.4
20260902180010 62 120 0.0 0.0 0.00 0.00 0.00 91 1005.5
20260902174509 61 120 0.0 0.0 0.00 0.00 0.00 92 1005.8
20260902173008 61 120 0.0 0.0 0.00 0.00 0.00 93 1005.4
20260902171508 61 120 0.0 0.0 0.00 0.00 0.00 92 1005.5
20260902170007 60 119 1.0 2.0 0.00 0.00 0.00 91 1005.2
20260902164510 60 122 0.0 4.0 0.00 0.00 0.00 92 1004.8
20260902163004 60 302 0.0 1.0 0.00 0.00 0.00 89 1005.2
20260902161508 63 268 0.0 5.0 0.00 0.00 0.00 82 1006.8
20260902160105 65 136 0.0 2.0 0.00 0.00 0.00 76 1005.2
20260902154559 66 287 0.0 2.0 0.00 0.00 0.00 70 1004.6
20260902153058 65 129 0.0 0.0 0.00 0.00 0.00 76 1004.5
20260902151558 63 283 0.0 0.0 0.00 0.00 0.00 79 1004.4
20260902150055 61 283 0.0 0.0 0.00 0.00 0.00 83 1004.6
20260902144555 60 283 0.0 0.0 0.00 0.00 0.00 86 1004.7
20260902143054 60 284 0.0 0.0 0.00 0.00 0.00 85 1004.7
20260902141558 60 284 0.0 0.0 0.00 0.00 0.00 84 1004.8
20260902140053 61 284 0.0 0.0 0.00 0.00 0.00 80 1005.0
20260902134551 61 283 0.0 1.0 0.00 0.00 0.00 79 1005.1
20260902133051 59 220 0.0 2.0 0.00 0.00 0.00 86 1005.2
20260902131551 59 226 0.0 0.0 0.00 0.00 0.00 86 1005.3
20260902130047 59 226 0.0 0.0 0.00 0.00 0.00 85 1005.4
20260902124556 60 226 0.0 0.0 0.00 0.00 0.00 84 1005.2
20260902123047 60 226 0.0 0.0 0.00 0.00 0.00 82 1005.1
20260902121547 62 283 0.0 1.0 0.00 0.00 0.00 79 1004.7
20260902120042 60 290 0.0 1.0 0.00 0.00 0.00 82 1004.9
20260902114541 60 191 0.0 0.0 0.00 0.00 0.00 84 1004.9
20260902113045 60 210 0.0 1.0 0.00 0.00 0.00 84 1005.0
20260902111549 60 134 0.0 0.0 0.00 0.00 0.00 83 1004.9
20260902110038 61 134 0.0 1.0 0.00 0.00 0.00 82 1004.8
20260902104540 61 136 0.0 0.0 0.00 0.00 0.00 81 1004.9
20260902103030 63 136 0.0 0.0 0.00 0.00 0.00 79 1004.8
20260902101531 65 136 0.0 1.0 0.00 0.00 0.00 69 1004.8
20260902100031 66 123 0.0 0.0 0.00 0.00 0.00 65 1005.2
20260902094524 66 123 0.0 0.0 0.00 0.00 0.00 66 1005.4
20260902093022 66 146 0.0 1.0 0.00 0.00 0.00 67 1005.3
20260902091530 65 126 0.0 0.0 0.00 0.00 0.00 71 1005.4
20260902090020 66 126 0.0 1.0 0.00 0.00 0.00 65 1005.2
20260902084519 65 32 0.0 0.0 0.00 0.00 0.00 68 1005.2
20260902083019 67 32 0.0 0.0 0.00 0.00 0.00 64 1005.1
20260902081519 68 32 0.0 0.0 0.00 0.00 0.00 62 1005.1
20260902080017 69 32 0.0 2.0 0.00 0.00 0.00 62 1005.1
20260902074514 68 217 0.0 2.0 0.00 0.00 0.00 63 1005.3
20260902073016 68 18 0.0 1.0 0.00 0.00 0.00 61 1005.1
20260902071512 67 238 0.0 1.0 0.00 0.00 0.00 62 1005.1
20260902070007 65 240 0.0 0.0 0.00 0.00 0.00 70 1005.0
20260902064505 65 240 0.0 0.0 0.00 0.00 0.00 70 1004.5
20260902063007 66 240 0.0 0.0 0.00 0.00 0.00 65 1004.2
20260902061504 68 240 0.0 1.0 0.00 0.00 0.00 62 1004.0
20260902060014 70 241 0.0 0.0 0.00 0.00 0.00 61 1003.8
20260902054510 72 240 0.0 0.0 0.00 0.00 0.00 53 1003.7
20260902053004 74 241 0.0 1.0 0.00 0.00 0.00 45 1003.5
20260902051501 74 170 0.0 2.0 0.00 0.00 0.00 46 1003.4
20260902050106 74 266 0.0 1.0 0.00 0.00 0.00 47 1003.2
20260902044600 75 95 0.0 2.0 0.00 0.00 0.00 47 1003.0
20260902043102 74 52 0.0 2.0 0.00 0.00 0.00 46 1003.0
20260902041608 76 236 0.0 3.0 0.00 0.00 0.00 43 1002.7
20260902040058 76 214 0.0 2.0 0.00 0.00 0.00 43 1002.7
20260902034558 76 241 0.0 9.0 0.00 0.00 0.00 43 1002.6
20260902033109 77 79 0.0 3.0 0.00 0.00 0.00 41 1002.5
20260902031556 77 127 1.0 6.0 0.00 0.00 0.00 43 1002.3
20260902030155 76 349 0.0 3.0 0.00 0.00 0.00 48 1002.1
20260902024555 74 109 0.0 3.0 0.00 0.00 0.00 57 1001.9
20260902023104 73 139 0.0 1.0 0.00 0.00 0.00 61 1002.0
20260902021612 73 277 0.0 2.0 0.00 0.00 0.00 67 1001.9
20260902020058 74 134 0.0 0.0 0.00 0.00 0.00 64 1001.9
20260902014553 74 134 0.0 1.0 0.00 0.00 0.00 72 1001.7
20260902013053 75 131 0.0 0.0 0.00 0.00 0.00 71 1001.4